Вернуться в каталог

STARLINK-30066

АктивенСвязьVLEO
NORAD 56704·PAYLOAD·🇺🇸 United States

Запущен May 19, 2023 с Cape Canaveral Space Force Station

Loading…

Ближайшие Пролёты (ближайшие 24 часа)

TLE

СвежийSource: CelesTrak SupGP

Эпоха: Sep 14, 2026, 21:02 UTC

1 56704C 23067S   26257.87687500  .00003967  00000+0  14368-3 0  2579
2 56704  43.0028 282.4300 0001725 273.0357 169.3313 15.27579071    13

Отслеживайте STARLINK-30066 в реальном времени с AllMySat

Download on the App Store